[[{"header":{"parameterUnit":"m.s-1","parameterCategory":1,"la1":30.2991,"la2":30.254,"lo1":-89.0895,"lo2":-89.0444,"dx":0.0017,"dy":0.0017,"nx":28,"ny":28,"refTime":"2023-01-27T09:00:00:Z","depth":0,"parameterNumber":2,"parameterNumberName":"U-component_of_WINDS"},"data":[0,0,0,0,0,0,0,0,0,0,0,0,0,0,0,0,0,0,0,0,0,0,0,0,0,0,0,0,0,0,0,0,0,0,0,0,0,0,0,0,0,0,0,0,0,0,0,0,0,0,0,0,0,0,0,0,0,0,-1.257,-1.257,0,-1.2524,-1.2523,-1.2522,-1.2434,-1.2433,-1.2431,-1.2429,-1.2382,-1.2383,-1.2383,0,0,0,0,0,0,0,0,0,0,0,0,0,-1.2587,-1.2587,-1.2571,-1.257,-1.2569,-1.2524,-1.2523,-1.2522,-1.2435,-1.2433,-1.243,-1.2428,-1.2382,-1.2383,-1.2383,0,0,0,0,0,0,0,0,0,0,0,0,0,-1.2564,-1.2587,-1.2571,-1.252,-1.2515,-1.2524,-1.2523,-1.2522,-1.2435,-1.2432,-1.243,-1.2428,-1.2382,-1.2383,-1.2383,-1.2438,0,0,-1.2385,-1.2385,0,0,0,0,0,0,0,0,-1.2565,-1.2563,-1.2528,-1.2524,-1.2518,-1.2482,-1.2511,-1.2494,-1.2436,-1.2465,-1.2429,-1.2426,-1.2418,-1.2415,-1.2412,-1.2435,-1.2433,-1.2385,-1.2385,-1.2385,-1.2385,0,0,0,0,0,0,0,-1.2567,-1.2565,-1.2552,-1.2528,-1.2522,-1.2501,-1.2494,-1.2508,-1.2457,-1.2463,-1.2456,-1.2452,-1.2414,-1.2412,-1.241,-1.2433,-1.2385,-1.2385,-1.2385,-1.2386,-1.2501,-1.2503,0,0,0,0,0,0,-1.2576,-1.2567,-1.2553,-1.255,-1.2536,-1.2502,-1.2495,-1.2496,-1.2456,-1.2448,-1.2454,-1.2448,-1.2412,-1.241,-1.2408,-1.247,-1.2385,-1.2386,-1.2386,-1.2498,-1.2501,-1.2504,0,0,0,0,0,0,-1.2576,-1.2575,-1.2555,-1.2557,-1.2553,-1.2505,-1.2506,-1.2497,-1.2494,-1.245,-1.244,-1.246,-1.241,-1.2407,-1.2431,-1.2468,-1.2386,-1.2386,-1.2495,-1.2499,-1.2503,-1.2595,0,0,0,0,0,0,-1.2577,-1.2576,-1.2595,-1.2558,-1.2553,-1.2579,-1.2508,-1.2498,-1.2495,-1.2486,-1.2453,-1.2445,-1.2408,-1.2431,-1.2432,-1.2467,-1.2387,-1.2491,-1.2497,-1.2502,-1.2588,-1.2602,-1.2613,0,0,0,0,0,-1.2578,-1.2623,-1.2597,-1.2596,-1.2576,-1.2581,-1.2578,-1.2534,-1.2498,-1.2518,-1.249,-1.2446,-1.2464,-1.2434,-1.2434,-1.247,-1.2489,-1.2495,-1.2501,-1.2583,-1.2599,-1.2613,0,0,0,0,0,0,-1.2666,-1.2617,-1.2588,-1.2621,-1.2606,-1.2566,-1.2589,-1.2552,-1.2546,-1.2539,-1.2484,-1.2478,-1.2509,-1.2492,-1.246,-1.2522,-1.247,-1.2476,-1.2532,-1.2547,-1.2559,-1.2562,-1.2387,0,0,0,0,0,-1.2689,-1.2696,-1.2654,-1.2688,-1.2682,-1.2637,-1.2637,-1.2605,-1.2587,-1.258,-1.2553,-1.2538,-1.254,-1.2542,-1.2542,-1.2586,-1.2578,-1.2611,-1.2623,-1.2634,-1.264,-1.2664,-1.2678,-1.2525,-1.2525,-1.2525,0,0,-1.2737,-1.2712,-1.2719,-1.2705,-1.2689,-1.2699,-1.2632,-1.2645,-1.2652,-1.2582,-1.2603,-1.2583,-1.2563,-1.2598,-1.2612,-1.2584,-1.2681,-1.2641,-1.265,-1.265,-1.2671,-1.2686,-1.2699,-1.2529,-1.2528,-1.2528,0,0,-1.283,-1.2811,-1.2838,-1.2824,-1.2801,-1.2771,-1.2778,-1.2744,-1.2729,-1.2749,-1.2697,-1.2706,-1.271,-1.2698,-1.2692,-1.2784,-1.2744,-1.2785,-1.2849,-1.2873,-1.2885,-1.2896,-1.2929,-1.2942,-1.2792,-1.2792,-1.2792,0,-1.2892,-1.2904,-1.2856,-1.2873,-1.2869,-1.2807,-1.2834,-1.2823,-1.2802,-1.2801,-1.2771,-1.2776,-1.2758,-1.279,-1.2813,-1.281,-1.2817,-1.2788,-1.2887,-1.2897,-1.2906,-1.2938,-1.295,-1.2797,-1.2797,-1.2796,-1.2795,0,-1.2983,-1.2992,-1.3017,-1.2998,-1.2997,-1.3019,-1.2976,-1.2981,-1.2949,-1.2924,-1.2946,-1.2923,-1.2917,-1.2922,-1.2891,-1.2951,-1.2935,-1.2897,-1.2843,-1.2927,-1.2956,-1.2967,-1.2805,-1.2803,-1.2801,-1.28,0,0,-1.3127,-1.3083,-1.3093,-1.3084,-1.3056,-1.3063,-1.3083,-1.3078,-1.3084,-1.3072,-1.3088,-1.3095,-1.306,-1.3054,-1.3022,-1.3043,-1.3119,-1.3003,-1.3001,-1.3025,-1.3184,-1.3213,-1.3227,-1.3093,-1.3095,-1.3096,-1.3186,0,-1.3213,-1.3244,-1.3203,-1.3244,-1.3253,-1.3196,-1.3214,-1.3199,-1.3177,-1.3182,-1.3157,-1.3163,-1.3116,-1.3113,-1.3131,-1.3106,-1.315,-1.3098,-1.3108,-1.3109,-1.3115,-1.3242,-1.3272,-1.3358,-1.3197,-1.3199,-1.32,0,-1.3317,-1.3311,-1.3353,-1.3324,-1.3326,-1.3343,-1.3336,-1.3341,-1.3324,-1.3306,-1.3301,-1.3263,-1.3283,-1.3231,-1.3258,-1.3224,-1.3226,-1.3215,-1.3217,-1.3216,-1.3159,-1.3245,-1.3384,-1.3397,-1.3217,-1.3216,-1.3215,0,-1.3419,-1.3421,-1.3446,-1.3441,-1.3408,-1.3421,-1.3408,-1.3389,-1.3389,-1.3383,-1.3383,-1.338,-1.3379,-1.3378,-1.3341,-1.3307,-1.3373,-1.3318,-1.3359,-1.3361,-1.3375,-1.3375,-1.3517,-1.3377,-1.3377,-1.3377,-1.3376,0,-1.3519,-1.3547,-1.3492,-1.3508,-1.3538,-1.3492,-1.3524,-1.3505,-1.3489,-1.3501,-1.3452,-1.3465,-1.3415,-1.3423,-1.3394,-1.3422,-1.3421,-1.3408,-1.34,-1.3412,-1.3414,-1.3413,-1.3406,-1.338,-1.3379,-1.3379,-1.3378,0,-1.3637,-1.3601,-1.3626,-1.3593,-1.3585,-1.361,-1.3582,-1.3596,-1.3571,-1.3588,-1.3589,-1.355,-1.3557,-1.352,-1.352,-1.3501,-1.3543,-1.3525,-1.3549,-1.3543,-1.3587,-1.3584,-1.3733,-1.3751,-1.36,-1.3601,-1.3603,0,-1.3703,-1.3723,-1.3694,-1.3698,-1.3688,-1.3696,-1.3696,-1.3652,-1.3655,-1.3639,-1.3656,-1.3659,-1.3659,-1.3673,-1.3646,-1.3646,-1.3628,-1.368,-1.3627,-1.364,-1.3629,-1.3629,-1.3631,-1.3691,-1.3693,-1.3694,-1.3696,0,-1.3825,-1.3807,-1.3808,-1.3806,-1.3808,-1.3803,-1.3795,-1.3802,-1.3755,-1.3761,-1.3768,-1.3768,-1.3769,-1.3773,-1.3769,-1.3756,-1.3719,-1.3713,-1.3722,-1.3735,-1.3748,-1.3743,-1.3579,-1.3709,-1.3708,-1.3707,-1.3706,-1.3706,-1.3919,-1.3935,-1.3917,-1.3922,-1.3912,-1.3906,-1.3918,-1.3896,-1.39,-1.3898,-1.3872,-1.3885,-1.387,-1.386,-1.3852,-1.3861,-1.3836,-1.385,-1.3854,-1.3858,-1.3866,-1.3747,-1.386,-1.386,-1.3859,-1.3859,-1.3859,0,-1.4038,-1.4024,-1.4029,-1.402,-1.4025,-1.399,-1.398,-1.3986,-1.3997,-1.3986,-1.3988,-1.3997,-1.4002,-1.3976,-1.3977,-1.399,-1.3974,-1.3992,-1.3991,-1.3989,-1.3888,-1.3879,-1.4006,-1.4006,-1.4006,-1.4006,-1.4006,-1.4006,-1.4101,-1.4127,-1.4107,-1.4129,-1.4115,-1.4126,-1.4124,-1.4119,-1.4111,-1.4123,-1.4127,-1.411,-1.4093,-1.4094,-1.4097,-1.4089,-1.4093,-1.4118,-1.4104,-1.401,-1.3996,-1.3982,-1.3974,-1.4119,-1.4119,-1.4205,-1.4205,-1.4206]},{"header":{"parameterUnit":"m.s-1","parameterCategory":1,"la1":30.2991,"la2":30.254,"lo1":-89.0895,"lo2":-89.0444,"dx":0.0017,"dy":0.0017,"nx":28,"ny":28,"refTime":"2023-01-27T09:00:00:Z","depth":0,"parameterNumber":3,"parameterNumberName":"V-component_of_WINDS"},"data":[0,0,0,0,0,0,0,0,0,0,0,0,0,0,0,0,0,0,0,0,0,0,0,0,0,0,0,0,0,0,0,0,0,0,0,0,0,0,0,0,0,0,0,0,0,0,0,0,0,0,0,0,0,0,0,0,0,0,2.0643,2.0643,0,2.0618,2.0617,2.0617,2.0654,2.0656,2.0657,2.0658,2.0627,2.0625,2.0623,0,0,0,0,0,0,0,0,0,0,0,0,0,2.0719,2.0717,2.0643,2.0643,2.0642,2.0618,2.0617,2.0617,2.0654,2.0656,2.0657,2.0659,2.0627,2.0625,2.0622,0,0,0,0,0,0,0,0,0,0,0,0,0,2.0689,2.0717,2.0643,2.0658,2.0659,2.0618,2.0617,2.0617,2.0654,2.0656,2.0658,2.066,2.0628,2.0625,2.0622,2.0563,0,0,2.0613,2.0611,0,0,0,0,0,0,0,0,2.069,2.0686,2.0656,2.0657,2.0658,2.0641,2.0633,2.0599,2.0653,2.0656,2.0658,2.0661,2.063,2.0626,2.0617,2.0562,2.056,2.0612,2.061,2.0609,2.0608,0,0,0,0,0,0,0,2.0692,2.0687,2.0633,2.0656,2.0657,2.0664,2.0662,2.0626,2.0631,2.0655,2.0658,2.0655,2.063,2.062,2.0617,2.056,2.0612,2.061,2.0608,2.0607,2.0454,2.0452,0,0,0,0,0,0,2.0693,2.0689,2.0634,2.0632,2.068,2.0661,2.0659,2.0644,2.0632,2.0632,2.0653,2.0657,2.0624,2.062,2.0616,2.0546,2.0609,2.0606,2.0604,2.0457,2.0454,2.0452,0,0,0,0,0,0,2.0695,2.0688,2.0635,2.0661,2.0655,2.0658,2.0641,2.0643,2.0633,2.0631,2.0631,2.0642,2.0626,2.062,2.0576,2.0545,2.0605,2.0602,2.0459,2.0456,2.0453,2.0405,0,0,0,0,0,0,2.0697,2.0688,2.0667,2.066,2.0653,2.0597,2.0639,2.0641,2.0628,2.0632,2.062,2.062,2.0627,2.0581,2.0573,2.0542,2.06,2.0462,2.0458,2.0454,2.0409,2.04,2.0393,0,0,0,0,0,2.0699,2.0653,2.0666,2.0659,2.0627,2.0595,2.0591,2.0601,2.0625,2.0603,2.0602,2.062,2.055,2.0576,2.0568,2.0535,2.0464,2.0459,2.0454,2.0413,2.0402,2.0393,0,0,0,0,0,0,2.0654,2.0653,2.0666,2.0617,2.0606,2.0601,2.0574,2.0589,2.057,2.0574,2.0587,2.0584,2.0537,2.0532,2.0561,2.0477,2.0511,2.0504,2.0482,2.0472,2.0464,2.0465,2.0597,0,0,0,0,0,2.0639,2.0614,2.0614,2.057,2.0564,2.057,2.0556,2.0566,2.0554,2.0549,2.0544,2.0531,2.0506,2.0489,2.0465,2.0409,2.0406,2.0382,2.0374,2.0368,2.0361,2.033,2.0319,2.0436,2.0436,2.0436,0,0,2.0606,2.0602,2.0586,2.0561,2.0554,2.0527,2.0566,2.0535,2.0515,2.0544,2.0502,2.0499,2.0484,2.0434,2.0411,2.0428,2.0329,2.0361,2.0356,2.0353,2.0324,2.0313,2.0303,2.0432,2.0433,2.0433,0,0,2.0532,2.0527,2.0491,2.0483,2.0472,2.0476,2.0467,2.046,2.046,2.0419,2.044,2.0415,2.0372,2.0361,2.0349,2.0273,2.0289,2.0265,2.0221,2.0191,2.0182,2.0174,2.0145,2.0135,2.0259,2.0259,2.0259,0,2.0492,2.0454,2.0469,2.0438,2.0426,2.0453,2.0415,2.0406,2.0387,2.0378,2.0398,2.0344,2.0336,2.0284,2.0265,2.0255,2.0244,2.0266,2.0182,2.0174,2.0167,2.014,2.0129,2.0256,2.0256,2.0256,2.0257,0,2.0405,2.0378,2.0349,2.0333,2.0318,2.0283,2.0292,2.0274,2.0286,2.0287,2.0245,2.0237,2.0213,2.0201,2.0211,2.0149,2.016,2.0181,2.0214,2.0153,2.0128,2.0117,2.0252,2.0253,2.0253,2.0254,0,0,2.03,2.0294,2.0283,2.0275,2.0266,2.0245,2.0211,2.0189,2.0174,2.016,2.0131,2.0095,2.0114,2.0101,2.011,2.0084,2.0022,2.0108,2.0107,2.0091,1.9953,1.9937,1.9925,2.0034,2.0032,2.003,1.9954,0,2.0226,2.017,2.0183,2.0126,2.0101,2.0127,2.0098,2.0088,2.0089,2.0067,2.0067,2.0041,2.0069,2.0061,2.0037,2.0035,1.9995,2.0041,2.0005,2.0004,2.0007,1.9912,1.9894,1.9823,1.9945,1.9943,1.9942,0,2.0132,2.0117,2.0058,2.0053,2.0043,2.0017,1.9998,1.9977,1.9966,1.9968,1.9955,1.9969,1.9934,1.9969,1.9921,1.9952,1.9938,1.9935,1.9933,1.9928,1.9968,1.9904,1.98,1.9789,1.9927,1.9928,1.9929,0,2.006,2.0025,1.9986,1.9979,1.9972,1.9953,1.9949,1.994,1.9926,1.9909,1.99,1.9879,1.9866,1.9849,1.9856,1.9882,1.9806,1.9842,1.9805,1.9805,1.9787,1.9787,1.9678,1.978,1.978,1.978,1.9781,0,1.9975,1.9938,1.9953,1.9929,1.9888,1.9903,1.9861,1.986,1.9853,1.9827,1.9848,1.9824,1.9836,1.9812,1.9817,1.9775,1.977,1.977,1.9771,1.9767,1.9767,1.9757,1.9762,1.9778,1.9778,1.9779,1.9779,0,1.9887,1.9896,1.9855,1.9853,1.9851,1.9821,1.9819,1.9795,1.9799,1.9766,1.9759,1.9764,1.9736,1.9743,1.9712,1.9716,1.9663,1.9672,1.9667,1.9669,1.9631,1.9634,1.9511,1.9495,1.9608,1.9607,1.9606,0,1.9832,1.9804,1.98,1.9785,1.978,1.9757,1.9743,1.9757,1.9742,1.9728,1.9706,1.9681,1.9662,1.9617,1.9616,1.9593,1.96,1.9558,1.9596,1.9593,1.9598,1.9599,1.9596,1.955,1.9549,1.9548,1.9547,0,1.9732,1.9738,1.9719,1.9701,1.9685,1.9671,1.9659,1.9646,1.9659,1.964,1.9614,1.9599,1.9569,1.9544,1.9523,1.9517,1.9533,1.9535,1.9525,1.952,1.9518,1.9517,1.9645,1.9537,1.9538,1.9539,1.954,1.954,1.9658,1.9635,1.9628,1.9606,1.9599,1.9587,1.9565,1.9567,1.9546,1.9524,1.9533,1.9502,1.9492,1.9465,1.9457,1.9432,1.9448,1.9433,1.943,1.9426,1.942,1.9523,1.9429,1.9429,1.9429,1.9429,1.943,0,1.9558,1.9556,1.9536,1.9519,1.9501,1.9521,1.9509,1.9492,1.9466,1.9456,1.9437,1.9406,1.9382,1.938,1.9357,1.9337,1.9344,1.933,1.9331,1.9329,1.9409,1.9419,1.9325,1.9325,1.9325,1.9325,1.9325,1.9325,1.9504,1.9466,1.9471,1.9429,1.9427,1.9398,1.939,1.9379,1.9371,1.9336,1.9317,1.9317,1.931,1.9286,1.9264,1.9264,1.9254,1.9237,1.924,1.9313,1.9324,1.9334,1.9343,1.9235,1.9235,1.9163,1.9162,1.9161]}]]